Time,TemperatureF,DewpointF,PressureIn,WindDirection,WindDirectionDegrees,WindSpeedMPH,WindSpeedGustMPH,Humidity,HourlyPrecipIn,Conditions,Clouds,dailyrainin,SoftwareType,DateUTC
2013-10-04 00:00:00,75.6,42.8,29.89,ESE,112,2.4,2.4,31,0.00,RA,,0.08,WeatherDisplay:10.37,2013-10-04 05:00:00,
2013-10-04 00:03:00,75.6,42.8,29.89,NE,45,2.0,2.0,31,0.00,RA,,0.00,WeatherDisplay:10.37,2013-10-04 05:03:00,
2013-10-04 00:04:00,75.4,42.6,29.89,NE,45,2.3,2.3,31,0.00,RA,,0.00,WeatherDisplay:10.37,2013-10-04 05:04:00,
2013-10-04 00:05:00,75.4,42.6,29.89,ESE,112,2.3,2.3,31,0.00,RA,,0.00,WeatherDisplay:10.37,2013-10-04 05:05:00,
2013-10-04 00:06:00,75.4,42.6,29.89,ESE,112,2.3,2.3,31,0.00,RA,,0.00,WeatherDisplay:10.37,2013-10-04 05:06:00,
2013-10-04 00:08:00,75.4,43.5,29.89,SE,135,2.3,2.3,32,0.00,RA,,0.00,WeatherDisplay:10.37,2013-10-04 05:08:00,
2013-10-04 00:13:00,75.2,43.3,29.89,SE,135,1.2,1.4,32,0.00,CLR,,0.00,WeatherDisplay:10.37,2013-10-04 05:13:00,
2013-10-04 00:14:00,75.2,43.3,29.89,SE,135,1.2,0.0,32,0.00,CLR,,0.00,WeatherDisplay:10.37,2013-10-04 05:14:00,
2013-10-04 00:15:00,75.2,43.3,29.89,SE,135,1.2,1.2,32,0.00,CLR,,0.00,WeatherDisplay:10.37,2013-10-04 05:15:00,
2013-10-04 00:17:00,75.0,43.1,29.89,SE,135,2.3,2.3,32,0.00,CLR,,0.00,WeatherDisplay:10.37,2013-10-04 05:17:00,
2013-10-04 00:18:00,75.0,43.1,29.89,SE,135,2.3,2.3,32,0.00,CLR,,0.00,WeatherDisplay:10.37,2013-10-04 05:18:00,
2013-10-04 00:22:00,75.0,43.1,29.89,ESE,112,2.3,0.0,32,0.00,CLR,,0.00,WeatherDisplay:10.37,2013-10-04 05:22:00,
2013-10-04 00:25:00,74.8,43.0,29.89,ESE,112,2.3,2.4,32,0.00,CLR,,0.00,WeatherDisplay:10.37,2013-10-04 05:25:00,
2013-10-04 00:31:00,74.7,43.6,29.89,ESE,112,1.2,0.0,33,0.00,CLR,,0.00,WeatherDisplay:10.37,2013-10-04 05:31:00,
2013-10-04 00:36:00,74.5,43.5,29.89,ESE,112,2.3,0.0,33,0.00,CLR,,0.00,WeatherDisplay:10.37,2013-10-04 05:36:00,
2013-10-04 00:41:00,74.5,43.5,29.89,ESE,112,0.0,0.0,33,0.00,CLR,,0.00,WeatherDisplay:10.37,2013-10-04 05:41:00,
2013-10-04 00:46:00,74.5,43.5,29.89,ESE,112,0.0,0.0,33,0.00,CLR,,0.00,WeatherDisplay:10.37,2013-10-04 05:46:00,
2013-10-04 00:51:00,74.3,43.3,29.89,SE,135,0.0,0.0,33,0.00,CLR,,0.00,WeatherDisplay:10.37,2013-10-04 05:51:00,
2013-10-04 00:56:00,74.1,43.2,29.89,SE,135,1.4,1.4,33,0.00,CLR,,0.00,WeatherDisplay:10.37,2013-10-04 05:56:00,
2013-10-04 01:01:00,74.1,43.9,29.89,SE,135,1.2,0.0,34,0.00,CLR,,0.00,WeatherDisplay:10.37,2013-10-04 06:01:00,
2013-10-04 01:06:00,73.9,43.8,29.89,SE,135,1.2,0.0,34,0.00,CLR,,0.00,WeatherDisplay:10.37,2013-10-04 06:06:00,
2013-10-04 01:11:00,73.9,43.8,29.89,SE,135,2.3,0.0,34,0.00,CLR,,0.00,WeatherDisplay:10.37,2013-10-04 06:11:00,
2013-10-04 01:16:00,73.8,43.6,29.89,ESE,112,2.3,2.3,34,0.00,CLR,,0.00,WeatherDisplay:10.37,2013-10-04 06:16:00,
2013-10-04 01:21:00,73.8,43.6,29.89,ESE,112,1.2,0.0,34,0.00,CLR,,0.00,WeatherDisplay:10.37,2013-10-04 06:21:00,
2013-10-04 01:26:00,73.6,44.2,29.89,ESE,112,2.3,2.3,35,0.00,CLR,,0.00,WeatherDisplay:10.37,2013-10-04 06:26:00,
2013-10-04 01:31:00,73.6,44.2,29.89,ESE,112,2.3,2.3,35,0.00,CLR,,0.00,WeatherDisplay:10.37,2013-10-04 06:31:00,
2013-10-04 01:36:00,73.6,44.2,29.89,ESE,112,0.0,1.2,35,0.00,CLR,,0.00,WeatherDisplay:10.37,2013-10-04 06:36:00,
2013-10-04 01:41:00,73.4,44.1,29.89,ESE,112,1.2,1.2,35,0.00,CLR,,0.00,WeatherDisplay:10.37,2013-10-04 06:41:00,
2013-10-04 01:46:00,73.4,44.8,29.89,ESE,112,0.0,0.0,36,0.00,CLR,,0.00,WeatherDisplay:10.37,2013-10-04 06:46:00,
2013-10-04 01:51:00,73.4,44.8,29.89,ESE,112,1.2,0.0,36,0.00,CLR,,0.00,WeatherDisplay:10.37,2013-10-04 06:51:00,
2013-10-04 01:56:00,73.4,44.8,29.89,ESE,112,1.2,1.2,36,0.00,CLR,,0.00,WeatherDisplay:10.37,2013-10-04 06:56:00,
2013-10-04 02:01:00,73.2,44.7,29.89,ESE,112,0.0,0.0,36,0.00,SCT,,0.00,WeatherDisplay:10.37,2013-10-04 07:01:00,
2013-10-04 02:06:00,73.2,44.7,29.89,ESE,112,2.3,2.3,36,0.00,SCT,,0.00,WeatherDisplay:10.37,2013-10-04 07:06:00,
2013-10-04 02:11:00,73.2,44.7,29.89,ESE,112,2.0,0.0,36,0.00,SCT,,0.00,WeatherDisplay:10.37,2013-10-04 07:11:00,
2013-10-04 02:16:00,73.0,45.2,29.89,ESE,112,2.3,0.0,37,0.00,SCT,,0.00,WeatherDisplay:10.37,2013-10-04 07:16:00,
2013-10-04 02:21:00,73.0,45.2,29.86,ESE,112,0.0,1.2,37,0.00,SCT,,0.00,WeatherDisplay:10.37,2013-10-04 07:21:00,
2013-10-04 02:26:00,72.9,45.1,29.86,ESE,112,2.3,2.3,37,0.00,SCT,,0.00,WeatherDisplay:10.37,2013-10-04 07:26:00,
2013-10-04 02:31:00,72.9,45.1,29.86,ESE,112,0.0,0.0,37,0.00,SCT,,0.00,WeatherDisplay:10.37,2013-10-04 07:31:00,
2013-10-04 02:36:00,72.9,45.1,29.86,ESE,112,0.0,0.0,37,0.00,SCT,,0.00,WeatherDisplay:10.37,2013-10-04 07:36:00,
2013-10-04 02:41:00,72.7,44.9,29.86,ESE,112,0.0,0.0,37,0.00,CLR,,0.00,WeatherDisplay:10.37,2013-10-04 07:41:00,
2013-10-04 02:46:00,72.7,45.6,29.86,ESE,112,0.0,0.0,38,0.00,CLR,,0.00,WeatherDisplay:10.37,2013-10-04 07:46:00,
2013-10-04 02:51:00,72.5,69.4,29.86,East,90,1.2,1.2,90,0.00,CLR,,0.00,WeatherDisplay:10.37,2013-10-04 07:51:00,
2013-10-04 02:56:00,72.5,45.4,29.86,East,90,0.0,0.0,38,0.00,CLR,,0.00,WeatherDisplay:10.37,2013-10-04 07:56:00,
2013-10-04 03:01:00,72.5,46.1,29.86,East,90,1.2,1.2,39,0.00,CLR,,0.00,WeatherDisplay:10.37,2013-10-04 08:01:00,
2013-10-04 03:06:00,72.3,46.0,29.89,East,90,0.0,0.9,39,0.00,CLR,,0.00,WeatherDisplay:10.37,2013-10-04 08:06:00,
2013-10-04 03:11:00,72.3,46.0,29.89,East,90,2.3,0.0,39,0.00,CLR,,0.00,WeatherDisplay:10.37,2013-10-04 08:11:00,
2013-10-04 03:16:00,72.1,45.8,29.89,East,90,0.0,0.0,39,0.00,CLR,,0.00,WeatherDisplay:10.37,2013-10-04 08:16:00,
2013-10-04 03:21:00,72.1,45.8,29.89,East,90,1.2,0.0,39,0.00,CLR,,0.00,WeatherDisplay:10.37,2013-10-04 08:21:00,
2013-10-04 03:27:00,72.1,46.5,29.89,East,90,1.2,1.2,40,0.00,CLR,,0.00,WeatherDisplay:10.37,2013-10-04 08:27:00,
2013-10-04 03:32:00,72.1,46.5,29.89,ESE,112,2.3,2.3,40,0.00,CLR,,0.00,WeatherDisplay:10.37,2013-10-04 08:32:00,
2013-10-04 03:37:00,72.1,46.5,29.86,ESE,112,2.3,2.3,40,0.00,CLR,,0.00,WeatherDisplay:10.37,2013-10-04 08:37:00,
2013-10-04 03:42:00,72.0,46.3,29.86,ESE,112,0.0,0.0,40,0.00,CLR,,0.00,WeatherDisplay:10.37,2013-10-04 08:42:00,
2013-10-04 03:47:00,72.0,46.3,29.86,ESE,112,0.0,0.0,40,0.00,CLR,,0.00,WeatherDisplay:10.37,2013-10-04 08:47:00,
2013-10-04 03:52:00,71.8,46.8,29.86,ESE,112,0.0,0.0,41,0.00,CLR,,0.00,WeatherDisplay:10.37,2013-10-04 08:52:00,
2013-10-04 03:57:00,71.8,46.8,29.86,ESE,112,0.0,0.0,41,0.00,CLR,,0.00,WeatherDisplay:10.37,2013-10-04 08:57:00,
2013-10-04 04:02:00,71.8,47.4,29.86,ESE,112,2.3,2.3,42,0.00,CLR,,0.00,WeatherDisplay:10.37,2013-10-04 09:02:00,
2013-10-04 04:07:00,71.6,47.3,29.89,ESE,112,0.0,0.0,42,0.00,CLR,,0.00,WeatherDisplay:10.37,2013-10-04 09:07:00,
2013-10-04 04:12:00,71.6,47.3,29.89,ESE,112,1.4,0.0,42,0.00,CLR,,0.00,WeatherDisplay:10.37,2013-10-04 09:12:00,
2013-10-04 04:17:00,71.4,47.1,29.89,East,90,0.0,1.4,42,0.00,CLR,,0.00,WeatherDisplay:10.37,2013-10-04 09:17:00,
2013-10-04 04:22:00,71.4,47.1,29.86,ESE,112,1.2,0.0,42,0.00,CLR,,0.00,WeatherDisplay:10.37,2013-10-04 09:22:00,
2013-10-04 04:27:00,71.4,47.1,29.86,ESE,112,0.0,0.0,42,0.00,CLR,,0.00,WeatherDisplay:10.37,2013-10-04 09:27:00,
2013-10-04 04:32:00,71.2,47.6,29.86,ENE,68,0.0,0.0,43,0.00,CLR,,0.00,WeatherDisplay:10.37,2013-10-04 09:32:00,
2013-10-04 04:37:00,71.2,47.6,29.86,ENE,68,0.0,0.0,43,0.00,CLR,,0.00,WeatherDisplay:10.37,2013-10-04 09:37:00,
2013-10-04 04:42:00,71.1,47.4,29.86,ENE,68,0.0,0.0,43,0.00,CLR,,0.00,WeatherDisplay:10.37,2013-10-04 09:42:00,
2013-10-04 04:47:00,71.1,47.4,29.86,ENE,68,0.0,0.0,43,0.00,CLR,,0.00,WeatherDisplay:10.37,2013-10-04 09:47:00,
2013-10-04 04:52:00,71.1,48.0,29.89,ENE,68,0.0,0.0,44,0.00,CLR,,0.00,WeatherDisplay:10.37,2013-10-04 09:52:00,
2013-10-04 04:57:00,70.9,47.9,29.89,ENE,68,0.0,0.0,44,0.00,CLR,,0.00,WeatherDisplay:10.37,2013-10-04 09:57:00,
2013-10-04 05:02:00,70.9,48.5,29.89,ENE,68,0.0,0.0,45,0.00,CLR,,0.00,WeatherDisplay:10.37,2013-10-04 10:02:00,
2013-10-04 05:07:00,70.9,48.5,29.89,ENE,68,0.0,0.0,45,0.00,CLR,,0.00,WeatherDisplay:10.37,2013-10-04 10:07:00,
2013-10-04 05:12:00,70.7,48.3,29.89,ENE,68,1.2,1.2,45,0.00,CLR,,0.00,WeatherDisplay:10.37,2013-10-04 10:12:00,
2013-10-04 05:17:00,70.7,48.9,29.89,ENE,68,0.0,0.0,46,0.00,CLR,,0.00,WeatherDisplay:10.37,2013-10-04 10:17:00,
2013-10-04 05:22:00,70.5,49.3,29.86,ENE,68,1.2,1.2,47,0.00,CLR,,0.00,WeatherDisplay:10.37,2013-10-04 10:22:00,
2013-10-04 05:27:00,70.5,49.9,29.86,ENE,68,0.0,0.9,48,0.00,CLR,,0.00,WeatherDisplay:10.37,2013-10-04 10:27:00,